Погода в Шеллефтео

Швеция     64°44′27″N   20°57′46″E
темп.,
°C
ветер,
м/с
пор.,
м/с
влажн.,
%
обл.,
%
осадки,
мм/ч
давл.,
гПа
погр.,
м
28 июля, ср
ср2823:00+18ююз116081 0.0 101511
02:00+16зюз116539 0.0 101411
05:00+16сз11735 0.1 101314
08:00+23с11442 0.1 1011264
11:00+27в32330 0.0 1010959
14:00+27в33330 0.0 1009984
17:00+27юв33345 0.0 1007767
20:00+22в11530 0.0 100511
29 июля, чт
чт2923:00+17сз00630 0.0 100411
02:00+15зсз11670 0.0 100211
05:00+16ссз21661 0.0 100019
08:00+22св23495 0.0 999306
11:00+20св466212 0.0 999496
14:00+21всв46595 0.0 998591
17:00+21св47623 0.0 996556
20:00+19св38730 0.0 995500
30 июля, пт
пт3023:00+16ссв5118396 0.0 994430
02:00+15св5118970 0.0 993561
05:00+14св61192100 0.3 992594
08:00+14св61189100 0.7 992729
11:00+14ссв61184100 0.1 992768
14:00+14св51089100 0.3 992699
17:00+14св4991100 0.3 992523
20:00+14ссв3785100 0.3 993450
31 июля, сб
сб3123:00+11ссз239515 0.0 99494
02:00+8сз249837 0.0 99595
05:00+9сз269690 0.0 995205
08:00+15с356720 0.0 995636
11:00+19св234772 0.0 9961215
14:00+21в334288 0.0 9961575
17:00+18ююв455896 0.0 997657
20:00+16ю3668100 0.0 997347
1 августа, вс
вс123:00+12ю2391100 0.3 99751
02:00+11ю1193100 0.3 99719
05:00+12ю1385100 0.0 99799
08:00+14всв0084100 0.1 99761
11:00+15в1280100 0.0 998297
14:00+16в2271100 0.0 998512
17:00+16вюв0067100 0.0 998416
20:00+14юв0076100 0.0 99913